This is the latest recevied weather packets stored in our database for station/object KC2TER. If no packets are shown the sender has not sent any weather packets the latest 10 day(s).
| Time | Temp. | Humidity | Pressure | Rain* | Wind** | Luminosity | Snow |
|---|---|---|---|---|---|---|---|
| 1778166051 | 14.44° C | 61% | 1011.4 hPa | 0 mm | - | 657 W/m² | - |
| 1778165746 | 14.44° C | 61% | 1011.3 hPa | 0 mm | - | 686 W/m² | - |
| 1778165444 | 13.33° C | 65% | 1011.4 hPa | 0 mm | - | 683 W/m² | - |
| 1778165140 | 13.33° C | 64% | 1011.3 hPa | 0 mm | - | 242 W/m² | - |
| 1778164838 | 13.33° C | 66% | 1011.5 hPa | 0 mm | - | 262 W/m² | - |
| 1778164535 | 13.33° C | 66% | 1011.5 hPa | 0 mm | - | 309 W/m² | - |
| 1778164233 | 13.33° C | 68% | 1011.6 hPa | 0 mm | - | 317 W/m² | - |
| 1778163938 | 13.33° C | 70% | 1011.2 hPa | 0 mm | - | 291 W/m² | - |
| 1778163630 | 12.78° C | 71% | 1011.2 hPa | 0 mm | - | 269 W/m² | - |
| 1778163326 | 12.78° C | 72% | 1011.5 hPa | 0 mm | - | 248 W/m² | - |
| 1778163023 | 12.78° C | 74% | 1011.4 hPa | 0 mm | - | 267 W/m² | - |
| 1778162720 | 12.78° C | 74% | 1011.3 hPa | 0 mm | - | 228 W/m² | - |
| 1778162418 | 12.78° C | 74% | 1011.4 hPa | 0 mm | - | 301 W/m² | - |
| 1778162115 | 12.22° C | 77% | 1011.3 hPa | 0 mm | - | 291 W/m² | - |
| 1778161812 | 11.67° C | 77% | 1011.4 hPa | 0 mm | - | 301 W/m² | - |
| 1778161509 | 11.67° C | 78% | 1011.2 hPa | 0 mm | - | 174 W/m² | - |
| 1778161204 | 11.67° C | 78% | 1011.2 hPa | 0 mm | - | 201 W/m² | - |
| 1778160901 | 11.67° C | 79% | 1011.1 hPa | 0 mm | - | 205 W/m² | - |
| 1778160599 | 11.67° C | 80% | 1011.2 hPa | 0 mm | - | 168 W/m² | - |
| 1778160295 | 11.67° C | 80% | 1011.6 hPa | 0 mm | - | 169 W/m² | - |
| 1778159991 | 11.67° C | 81% | 1011.4 hPa | 0 mm | - | 187 W/m² | - |
| 1778159689 | 11.67° C | 81% | 1011.3 hPa | 0 mm | - | 165 W/m² | - |
| 1778159385 | 11.11° C | 82% | 1011.4 hPa | 0 mm | - | 171 W/m² | - |
| 1778159082 | 11.11° C | 82% | 1011.3 hPa | 0 mm | - | 154 W/m² | - |
| 1778158781 | 11.11° C | 82% | 1011.5 hPa | 0 mm | - | 112 W/m² | - |
* Rain latest hour (hover to see other rain measurements)
** Current wind speed in m/s (hover to see current wind gust speed)